When you browse on this site, cookies collect data to enhance your experience and personalize the content and advertising you see.
Visit our Privacy Policy to learn more. By continuing to use the site, you agree to this use of cookies and data.
  • In Czech Republic
  • List of Countries
  • For 7 days
  • Water Temperature
  • Satellite Maps
  • Weather Map
  • Weather Widgets
  • user-avatar
    Login

    Hourly Weather Yulara

    Today, 23 February, Saturday

    Time Temperature Precipitation Wind Pressure Humidity
    00:00 +29°C° 0 mm 5 mps 718 mmHg 16%
    01:00 +28°C° 0 mm 5 mps 718 mmHg 17%
    02:00 +27°C° 0 mm 5 mps 718 mmHg 17%
    03:00 +26°C° 0 mm 4 mps 718 mmHg 19%
    04:00 +25°C° 0 mm 4 mps 718 mmHg 19%
    05:00 +25°C° 0 mm 4 mps 718 mmHg 20%
    06:00 +23°C° 0 mm 4 mps 718 mmHg 20%
    07:00 +27°C° 0 mm 5 mps 718 mmHg 17%
    08:00 +29°C° 0 mm 6 mps 718 mmHg 14%
    09:00 +34°C° 0 mm 6 mps 719 mmHg 10%
    10:00 +35°C° 0 mm 6 mps 719 mmHg 9%
    11:00 +36°C° 0 mm 6 mps 718 mmHg 8%
    12:00 +38°C° 0 mm 6 mps 718 mmHg 7%
    13:00 +39°C° 0 mm 5 mps 718 mmHg 7%
    14:00 +40°C° 0 mm 5 mps 717 mmHg 6%
    15:00 +40°C° 0 mm 5 mps 717 mmHg 6%
    16:00 +40°C° 0 mm 5 mps 717 mmHg 7%
    17:00 +40°C° 0 mm 5 mps 717 mmHg 7%
    18:00 +39°C° 0 mm 5 mps 717 mmHg 8%
    19:00 +36°C° 0 mm 5 mps 717 mmHg 9%
    20:00 +34°C° 0 mm 5 mps 717 mmHg 11%
    21:00 +32°C° 0 mm 5 mps 717 mmHg 13%
    22:00 +32°C° 0 mm 5 mps 717 mmHg 14%
    23:00 +30°C° 0 mm 5 mps 717 mmHg 14%

    Tomorrow, 24 February, Sunday

    Time Temperature Precipitation Wind Pressure Humidity
    00:00 +29°C° 0 mm 5 mps 717 mmHg 15%
    01:00 +29°C° 0 mm 5 mps 717 mmHg 16%
    02:00 +28°C° 0 mm 5 mps 717 mmHg 16%
    03:00 +28°C° 0 mm 5 mps 717 mmHg 17%
    04:00 +27°C° 0 mm 5 mps 717 mmHg 18%
    05:00 +26°C° 0 mm 5 mps 717 mmHg 18%
    06:00 +26°C° 0 mm 4 mps 718 mmHg 19%
    07:00 +29°C° 0 mm 6 mps 718 mmHg 17%
    08:00 +32°C° 0 mm 7 mps 718 mmHg 15%
    09:00 +35°C° 0 mm 8 mps 719 mmHg 13%
    10:00 +37°C° 0 mm 8 mps 718 mmHg 12%
    11:00 +39°C° 0 mm 7 mps 718 mmHg 11%
    12:00 +40°C° 0 mm 6 mps 718 mmHg 9%
    13:00 +41°C° 0 mm 5 mps 717 mmHg 9%
    14:00 +41°C° 0 mm 5 mps 717 mmHg 8%
    15:00 +42°C° 0 mm 4 mps 716 mmHg 8%
    16:00 +41°C° 0 mm 4 mps 716 mmHg 8%
    17:00 +41°C° 0 mm 5 mps 716 mmHg 8%
    18:00 +40°C° 0 mm 5 mps 716 mmHg 8%
    19:00 +37°C° 0 mm 5 mps 717 mmHg 9%
    20:00 +35°C° 0 mm 5 mps 717 mmHg 10%
    21:00 +33°C° 0 mm 5 mps 717 mmHg 11%
    22:00 +33°C° 0 mm 5 mps 718 mmHg 12%
    23:00 +32°C° 0 mm 6 mps 718 mmHg 13%

    Day after tomorrow, 25 February, Monday

    Time Temperature Precipitation Wind Pressure Humidity
    00:00 +30°C° 0 mm 6 mps 718 mmHg 13%
    01:00 +30°C° 0 mm 5 mps 718 mmHg 14%
    02:00 +29°C° 0 mm 4 mps 718 mmHg 15%
    03:00 +28°C° 0 mm 4 mps 718 mmHg 15%
    04:00 +27°C° 0 mm 4 mps 718 mmHg 16%
    05:00 +26°C° 0 mm 4 mps 718 mmHg 17%
    06:00 +26°C° 0 mm 3 mps 718 mmHg 18%
    07:00 +28°C° 0 mm 4 mps 719 mmHg 18%
    08:00 +32°C° 0 mm 4 mps 719 mmHg 18%
    09:00 +35°C° 0 mm 5 mps 720 mmHg 19%
    10:00 +36°C° 0 mm 4 mps 720 mmHg 17%
    11:00 +38°C° 0 mm 4 mps 719 mmHg 14%
    12:00 +39°C° 0 mm 3 mps 719 mmHg 12%
    13:00 +40°C° 0 mm 3 mps 719 mmHg 11%
    14:00 +42°C° 0 mm 3 mps 718 mmHg 10%
    15:00 +42°C° 0 mm 4 mps 718 mmHg 10%
    16:00 +42°C° 0 mm 4 mps 717 mmHg 10%
    17:00 +41°C° 0 mm 5 mps 717 mmHg 10%
    18:00 +41°C° 0 mm 5 mps 717 mmHg 10%
    19:00 +39°C° 0 mm 5 mps 718 mmHg 11%
    20:00 +37°C° 0 mm 4 mps 718 mmHg 13%
    21:00 +35°C° 0 mm 4 mps 719 mmHg 14%
    22:00 +34°C° 0 mm 4 mps 719 mmHg 14%
    23:00 +33°C° 0 mm 5 mps 719 mmHg 15%

    26 February, Tuesday

    Time Temperature Precipitation Wind Pressure Humidity
    00:00 +30°C° 0 mm 5 mps 719 mmHg 16%
    01:00 +30°C° 0 mm 5 mps 719 mmHg 16%
    02:00 +29°C° 0 mm 5 mps 718 mmHg 16%
    03:00 +29°C° 0 mm 5 mps 718 mmHg 16%
    04:00 +28°C° 0 mm 5 mps 718 mmHg 17%
    05:00 +28°C° 0 mm 5 mps 719 mmHg 18%
    06:00 +27°C° 0 mm 4 mps 719 mmHg 19%
    07:00 +29°C° 0 mm 4 mps 719 mmHg 18%
    08:00 +33°C° 0 mm 4 mps 720 mmHg 18%
    09:00 +35°C° 0 mm 4 mps 720 mmHg 18%
    10:00 +36°C° 0 mm 4 mps 720 mmHg 16%
    11:00 +38°C° 0 mm 4 mps 720 mmHg 14%
    12:00 +39°C° 0 mm 3 mps 720 mmHg 11%
    13:00 +40°C° 0 mm 3 mps 719 mmHg 10%
    14:00 +42°C° 0 mm 4 mps 718 mmHg 9%
    15:00 +42°C° 0 mm 4 mps 717 mmHg 8%
    16:00 +42°C° 0 mm 5 mps 717 mmHg 8%
    17:00 +42°C° 0 mm 5 mps 717 mmHg 9%
    18:00 +41°C° 0 mm 6 mps 717 mmHg 9%
    19:00 +40°C° 0 mm 6 mps 718 mmHg 11%
    20:00 +39°C° 0 mm 6 mps 718 mmHg 13%
    21:00 +36°C° 0 mm 6 mps 719 mmHg 15%
    22:00 +35°C° 0 mm 5 mps 719 mmHg 17%
    23:00 +34°C° 0 mm 5 mps 719 mmHg 19%

    27 February, Wednesday

    Time Temperature Precipitation Wind Pressure Humidity
    00:00 +32°C° 0 mm 4 mps 719 mmHg 21%
    01:00 +32°C° 0 mm 4 mps 718 mmHg 24%
    02:00 +30°C° 0 mm 4 mps 718 mmHg 26%
    03:00 +29°C° 0 mm 4 mps 718 mmHg 29%
    04:00 +29°C° 0 mm 4 mps 718 mmHg 31%
    05:00 +28°C° 0 mm 3 mps 718 mmHg 33%
    06:00 +28°C° 0 mm 3 mps 719 mmHg 35%
    07:00 +30°C° 0 mm 4 mps 719 mmHg 32%
    08:00 +33°C° 0 mm 4 mps 720 mmHg 28%
    09:00 +35°C° 0 mm 4 mps 720 mmHg 25%
    10:00 +37°C° 0 mm 4 mps 720 mmHg 22%
    11:00 +38°C° 0 mm 4 mps 720 mmHg 19%
    12:00 +39°C° 0 mm 3 mps 719 mmHg 16%
    13:00 +40°C° 0 mm 4 mps 719 mmHg 15%
    14:00 +41°C° 0 mm 5 mps 718 mmHg 14%
    15:00 +41°C° 0 mm 5 mps 717 mmHg 14%
    16:00 +41°C° 0 mm 6 mps 717 mmHg 15%
    17:00 +40°C° 0 mm 6 mps 717 mmHg 16%
    18:00 +39°C° 0 mm 6 mps 717 mmHg 18%
    19:00 +37°C° 0 mm 5 mps 718 mmHg 20%
    20:00 +35°C° 0 mm 4 mps 718 mmHg 22%
    21:00 +34°C° 0 mm 2 mps 718 mmHg 23%
    22:00 +32°C° 0 mm 2 mps 718 mmHg 25%
    23:00 +31°C° 0 mm 2 mps 718 mmHg 27%

    28 February, Thursday

    Time Temperature Precipitation Wind Pressure Humidity
    00:00 +30°C° 0 mm 1 mps 718 mmHg 28%
    01:00 +30°C° 0 mm 2 mps 718 mmHg 26%
    02:00 +29°C° 0 mm 3 mps 718 mmHg 24%
    03:00 +29°C° 0 mm 4 mps 717 mmHg 23%
    04:00 +28°C° 0 mm 3 mps 718 mmHg 22%
    05:00 +28°C° 0 mm 3 mps 718 mmHg 21%
    06:00 +27°C° 0 mm 3 mps 718 mmHg 19%
    07:00 +29°C° 0 mm 3 mps 719 mmHg 19%
    08:00 +33°C° 0 mm 4 mps 719 mmHg 18%
    09:00 +35°C° 0 mm 4 mps 720 mmHg 17%
    10:00 +37°C° 0 mm 4 mps 719 mmHg 15%
    11:00 +40°C° 0 mm 5 mps 719 mmHg 13%
    12:00 +41°C° 0 mm 5 mps 718 mmHg 11%
    13:00 +42°C° 0 mm 5 mps 718 mmHg 10%
    14:00 +44°C° 0 mm 6 mps 717 mmHg 9%
    15:00 +44°C° 0 mm 6 mps 716 mmHg 9%
    16:00 +44°C° 0 mm 6 mps 716 mmHg 9%
    17:00 +42°C° 0 mm 6 mps 716 mmHg 9%
    18:00 +42°C° 0 mm 6 mps 716 mmHg 9%
    19:00 +40°C° 0 mm 6 mps 717 mmHg 10%
    20:00 +38°C° 0 mm 6 mps 717 mmHg 11%
    21:00 +35°C° 0 mm 5 mps 718 mmHg 12%
    22:00 +34°C° 0 mm 5 mps 717 mmHg 13%
    23:00 +33°C° 0 mm 5 mps 717 mmHg 15%
    Show more